VXP371 KHVN-KMYR

Flight info

Callsign VXP371
Flight time 1h 29m
Altitude 38000
Route BEADS EMJAY Q167 ZJAAY PAACK WYLMS
Aircraft B738/M-SDE2E3FGHIRWXY/LB1

Departure

Time 2026-04-22 22:32
Airport Tweed New Haven Airport (KHVN)

Arrival

Time 2026-04-23 00:01
Airport Myrtle Beach International Airport (KMYR)
Time Latitude Longitude Altitude Speed Heading
2026-04-22 22:14 41.26857 -72.89077 16 ft 0 kts 311°
2026-04-22 22:26 41.26844 -72.89054 17 ft 3 kts 298°
2026-04-22 22:27 41.26835 -72.89027 16 ft 3 kts 287°
2026-04-22 22:27 41.26829 -72.88999 18 ft 3 kts 294°
2026-04-22 22:27 41.26822 -72.88980 17 ft 3 kts 359°
2026-04-22 22:27 41.26822 -72.88977 16 ft 2 kts 43°
2026-04-22 22:29 41.26833 -72.88963 17 ft 6 kts 43°
2026-04-22 22:30 41.26886 -72.88913 15 ft 12 kts 16°
2026-04-22 22:30 41.26967 -72.88902 16 ft 12 kts
2026-04-22 22:30 41.27039 -72.88863 17 ft 11 kts 38°
2026-04-22 22:30 41.27096 -72.88797 18 ft 11 kts 52°
2026-04-22 22:31 41.27067 -72.88730 16 ft 11 kts 172°
2026-04-22 22:31 41.26935 -72.88735 16 ft 50 kts 182°
2026-04-22 22:31 41.26271 -72.88779 16 ft 138 kts 182°
2026-04-22 22:31 41.25085 -72.88809 308 ft 190 kts 180°
2026-04-22 22:32 41.23731 -72.88895 1411 ft 195 kts 183°
2026-04-22 22:32 41.22385 -72.88740 2582 ft 199 kts 163°
2026-04-22 22:32 41.21096 -72.88013 3600 ft 203 kts 160°
2026-04-22 22:32 41.19753 -72.87301 4487 ft 213 kts 161°
2026-04-22 22:33 41.18367 -72.86570 5316 ft 223 kts 158°
2026-04-22 22:33 41.16911 -72.85563 5580 ft 250 kts 153°
2026-04-22 22:33 41.15347 -72.84384 5971 ft 268 kts 152°
2026-04-22 22:33 41.13651 -72.83107 6391 ft 288 kts 152°
2026-04-22 22:34 41.11880 -72.81787 7132 ft 294 kts 153°
2026-04-22 22:34 41.10086 -72.80464 8010 ft 295 kts 153°
2026-04-22 22:34 41.08275 -72.79141 8867 ft 299 kts 153°
2026-04-22 22:34 41.06441 -72.77811 9698 ft 302 kts 154°
2026-04-22 22:35 41.04575 -72.76466 10380 ft 311 kts 154°
2026-04-22 22:35 41.02620 -72.75064 10582 ft 336 kts 154°
2026-04-22 22:35 41.00478 -72.73531 11006 ft 352 kts 154°
2026-04-22 22:35 40.98340 -72.71999 11669 ft 358 kts 154°
2026-04-22 22:36 40.96130 -72.70416 12417 ft 363 kts 154°
2026-04-22 22:36 40.93895 -72.68818 13142 ft 368 kts 154°
2026-04-22 22:36 40.91621 -72.67194 13857 ft 374 kts 154°
2026-04-22 22:36 40.89318 -72.65551 14500 ft 379 kts 154°
2026-04-22 22:37 40.86987 -72.63889 15155 ft 383 kts 154°
2026-04-22 22:37 40.84632 -72.62211 15850 ft 386 kts 154°
2026-04-22 22:37 40.82257 -72.60520 16501 ft 391 kts 154°
2026-04-22 22:37 40.79853 -72.58812 17166 ft 395 kts 154°
2026-04-22 22:38 40.77435 -72.57171 17787 ft 397 kts 162°
2026-04-22 22:38 40.74758 -72.56454 18368 ft 391 kts 186°
2026-04-22 22:38 40.72118 -72.57013 18962 ft 382 kts 204°
2026-04-22 22:38 40.69751 -72.58498 19550 ft 374 kts 221°
2026-04-22 22:39 40.67728 -72.60625 20139 ft 372 kts 226°
2026-04-22 22:39 40.65764 -72.62864 20678 ft 375 kts 227°
2026-04-22 22:39 40.63798 -72.65143 21178 ft 380 kts 227°
2026-04-22 22:39 40.61793 -72.67464 21730 ft 383 kts 227°
2026-04-22 22:40 40.59815 -72.69737 22304 ft 386 kts 227°
2026-04-22 22:40 40.57778 -72.72060 22860 ft 389 kts 227°
2026-04-22 22:40 40.55722 -72.74391 23407 ft 392 kts 226°
2026-04-22 22:40 40.53643 -72.76739 23874 ft 395 kts 226°
2026-04-22 22:41 40.51548 -72.79098 24325 ft 398 kts 226°
2026-04-22 22:41 40.49439 -72.81469 24780 ft 400 kts 226°
2026-04-22 22:41 40.47319 -72.83848 25208 ft 402 kts 226°
2026-04-22 22:41 40.45185 -72.86243 25617 ft 405 kts 226°
2026-04-22 22:42 40.43062 -72.88622 26036 ft 408 kts 226°
2026-04-22 22:42 40.40901 -72.91043 26454 ft 410 kts 226°
2026-04-22 22:42 40.38721 -72.93482 26876 ft 413 kts 226°
2026-04-22 22:42 40.36530 -72.95931 27248 ft 415 kts 226°
2026-04-22 22:43 40.34327 -72.98393 27633 ft 418 kts 226°
2026-04-22 22:43 40.32100 -73.00878 28019 ft 421 kts 227°
2026-04-22 22:43 40.29866 -73.03370 28399 ft 423 kts 226°
2026-04-22 22:43 40.27619 -73.05874 28721 ft 427 kts 226°
2026-04-22 22:44 40.25344 -73.08406 29036 ft 430 kts 226°
2026-04-22 22:44 40.23095 -73.10907 29401 ft 432 kts 226°
2026-04-22 22:44 40.20797 -73.13459 29764 ft 434 kts 226°
2026-04-22 22:44 40.18488 -73.16023 30095 ft 436 kts 226°
2026-04-22 22:45 40.16165 -73.18599 30365 ft 439 kts 226°
2026-04-22 22:45 40.13828 -73.21190 30617 ft 442 kts 226°
2026-04-22 22:45 40.11477 -73.23793 30857 ft 444 kts 226°
2026-04-22 22:45 40.09110 -73.26411 31049 ft 448 kts 226°
2026-04-22 22:46 40.06737 -73.29056 31327 ft 449 kts 227°
2026-04-22 22:46 40.04369 -73.31710 31658 ft 448 kts 227°
2026-04-22 22:46 40.02036 -73.34331 31945 ft 450 kts 227°
2026-04-22 22:46 39.99661 -73.36996 32248 ft 450 kts 227°
2026-04-22 22:47 39.97289 -73.39653 32590 ft 450 kts 227°
2026-04-22 22:47 39.94917 -73.42305 32915 ft 450 kts 227°
2026-04-22 22:47 39.92540 -73.44960 33190 ft 450 kts 227°
2026-04-22 22:47 39.90156 -73.47620 33477 ft 451 kts 227°
2026-04-22 22:48 39.87778 -73.50272 33804 ft 451 kts 227°
2026-04-22 22:48 39.85393 -73.52926 34106 ft 451 kts 227°
2026-04-22 22:48 39.83013 -73.55573 34376 ft 450 kts 227°
2026-04-22 22:48 39.80637 -73.58211 34681 ft 449 kts 227°
2026-04-22 22:49 39.78297 -73.60806 34986 ft 447 kts 227°
2026-04-22 22:49 39.75936 -73.63424 35260 ft 446 kts 227°
2026-04-22 22:49 39.73575 -73.66041 35467 ft 446 kts 227°
2026-04-22 22:49 39.71206 -73.68668 35597 ft 449 kts 227°
2026-04-22 22:50 39.68833 -73.71297 35806 ft 449 kts 227°
2026-04-22 22:50 39.66454 -73.73925 36127 ft 447 kts 227°
2026-04-22 22:50 39.64099 -73.76524 36467 ft 444 kts 227°
2026-04-22 22:50 39.61751 -73.79112 36736 ft 443 kts 227°
2026-04-22 22:51 39.59404 -73.81701 36947 ft 443 kts 227°
2026-04-22 22:51 39.57060 -73.84284 37177 ft 442 kts 227°
2026-04-22 22:51 39.54723 -73.86856 37434 ft 441 kts 227°
2026-04-22 22:51 39.52389 -73.89422 37695 ft 439 kts 227°
2026-04-22 22:52 39.50060 -73.91981 37924 ft 438 kts 227°
2026-04-22 22:52 39.47766 -73.94502 38045 ft 440 kts 227°
2026-04-22 22:52 39.45424 -73.97073 38032 ft 442 kts 226°
2026-04-22 22:53 39.40746 -74.02193 38023 ft 439 kts 226°
2026-04-22 22:53 39.36099 -74.07276 38023 ft 437 kts 226°
2026-04-22 22:54 39.31475 -74.12334 38047 ft 435 kts 226°
2026-04-22 22:54 39.26865 -74.17370 38048 ft 434 kts 226°
2026-04-22 22:55 39.22281 -74.22368 38043 ft 435 kts 226°
2026-04-22 22:55 39.15338 -74.29921 38035 ft 436 kts 226°
2026-04-22 22:56 39.10689 -74.34966 38047 ft 438 kts 226°
2026-04-22 22:56 39.06027 -74.40017 38049 ft 439 kts 226°
2026-04-22 22:57 39.01338 -74.45087 38051 ft 441 kts 226°
2026-04-22 22:57 38.96670 -74.50128 38035 ft 442 kts 226°
2026-04-22 22:58 38.91988 -74.55251 38046 ft 441 kts 228°
2026-04-22 22:58 38.87474 -74.60583 38048 ft 441 kts 229°
2026-04-22 22:59 38.82961 -74.65925 38050 ft 441 kts 228°
2026-04-22 22:59 38.78424 -74.71228 38030 ft 441 kts 228°
2026-04-22 23:00 38.73859 -74.76479 38048 ft 441 kts 226°
2026-04-22 23:00 38.69101 -74.81448 38052 ft 441 kts 224°
2026-04-22 23:01 38.64314 -74.86357 38037 ft 440 kts 225°
2026-04-22 23:01 38.59564 -74.91279 38025 ft 439 kts 225°
2026-04-22 23:02 38.54833 -74.96196 38033 ft 438 kts 225°
2026-04-22 23:02 38.50200 -75.01143 38039 ft 436 kts 227°
2026-04-22 23:03 38.45629 -75.06213 38033 ft 437 kts 224°
2026-04-22 23:03 38.40763 -75.10904 38042 ft 439 kts 222°
2026-04-22 23:04 38.35826 -75.15491 38032 ft 439 kts 222°
2026-04-22 23:04 38.30902 -75.20116 38041 ft 440 kts 222°
2026-04-22 23:05 38.25978 -75.24778 38038 ft 441 kts 222°
2026-04-22 23:05 38.21046 -75.29449 38038 ft 443 kts 222°
2026-04-22 23:06 38.16098 -75.34125 38030 ft 444 kts 222°
2026-04-22 23:06 38.11132 -75.38808 38036 ft 445 kts 222°
2026-04-22 23:07 38.06191 -75.43460 38005 ft 446 kts 222°
2026-04-22 23:07 38.01148 -75.48057 38033 ft 447 kts 220°
2026-04-22 23:08 37.96026 -75.52539 38041 ft 448 kts 220°
2026-04-22 23:08 37.90889 -75.57025 38048 ft 448 kts 220°
2026-04-22 23:09 37.85794 -75.61493 38045 ft 449 kts 220°
2026-04-22 23:09 37.80668 -75.65993 38044 ft 449 kts 220°
2026-04-22 23:10 37.75538 -75.70492 38034 ft 449 kts 220°
2026-04-22 23:10 37.70411 -75.74979 38042 ft 448 kts 220°
2026-04-22 23:11 37.65285 -75.79459 38030 ft 448 kts 220°
2026-04-22 23:11 37.60193 -75.83901 38052 ft 448 kts 220°
2026-04-22 23:12 37.55066 -75.88365 38040 ft 448 kts 220°
2026-04-22 23:12 37.49939 -75.92822 38043 ft 448 kts 220°
2026-04-22 23:13 37.44794 -75.97287 38054 ft 449 kts 220°
2026-04-22 23:13 37.39651 -76.01743 38049 ft 449 kts 220°
2026-04-22 23:14 37.34499 -76.06199 38045 ft 450 kts 219°
2026-04-22 23:14 37.29341 -76.10652 38047 ft 450 kts 219°
2026-04-22 23:15 37.24217 -76.15069 38028 ft 450 kts 220°
2026-04-22 23:15 37.19048 -76.19518 38032 ft 451 kts 220°
2026-04-22 23:16 37.13871 -76.23965 38021 ft 452 kts 219°
2026-04-22 23:16 37.08686 -76.28411 38031 ft 452 kts 219°
2026-04-22 23:17 37.03488 -76.32862 38026 ft 453 kts 219°
2026-04-22 23:17 36.98315 -76.37283 38046 ft 453 kts 219°
2026-04-22 23:18 36.93103 -76.41730 38036 ft 453 kts 219°
2026-04-22 23:18 36.87899 -76.46162 38050 ft 452 kts 219°
2026-04-22 23:19 36.82704 -76.50579 38025 ft 450 kts 219°
2026-04-22 23:19 36.77535 -76.54967 38052 ft 449 kts 219°
2026-04-22 23:20 36.72374 -76.59343 38056 ft 448 kts 219°
2026-04-22 23:20 36.67217 -76.63707 38056 ft 448 kts 218°
2026-04-22 23:21 36.62089 -76.68039 38053 ft 448 kts 218°
2026-04-22 23:21 36.56932 -76.72389 38053 ft 448 kts 218°
2026-04-22 23:22 36.51763 -76.76742 38052 ft 448 kts 218°
2026-04-22 23:22 36.46580 -76.81100 37844 ft 450 kts 219°
2026-04-22 23:23 36.43992 -76.83273 37557 ft 449 kts 219°
2026-04-22 23:23 36.41439 -76.85413 37296 ft 447 kts 219°
2026-04-22 23:23 36.38869 -76.87567 37004 ft 446 kts 218°
2026-04-22 23:23 36.36293 -76.89723 36738 ft 445 kts 218°
2026-04-22 23:24 36.33727 -76.91872 36487 ft 445 kts 218°
2026-04-22 23:24 36.31163 -76.94016 36231 ft 445 kts 218°
2026-04-22 23:24 36.28597 -76.96161 35986 ft 445 kts 218°
2026-04-22 23:24 36.26033 -76.98302 35737 ft 444 kts 218°
2026-04-22 23:25 36.23469 -77.00441 35487 ft 444 kts 218°
2026-04-22 23:25 36.20905 -77.02579 35243 ft 444 kts 218°
2026-04-22 23:25 36.18346 -77.04710 35001 ft 443 kts 218°
2026-04-22 23:25 36.15788 -77.06839 34760 ft 443 kts 218°
2026-04-22 23:26 36.13264 -77.08937 34526 ft 442 kts 218°
2026-04-22 23:26 36.10719 -77.11052 34289 ft 441 kts 218°
2026-04-22 23:26 36.08170 -77.13168 34049 ft 440 kts 218°
2026-04-22 23:26 36.05634 -77.15273 33781 ft 439 kts 218°
2026-04-22 23:27 36.03111 -77.17364 33504 ft 433 kts 218°
2026-04-22 23:27 36.00631 -77.19417 33228 ft 426 kts 218°
2026-04-22 23:27 35.98183 -77.21444 32953 ft 420 kts 218°
2026-04-22 23:27 35.95764 -77.23445 32673 ft 418 kts 218°
2026-04-22 23:28 35.93351 -77.25435 32406 ft 417 kts 217°
2026-04-22 23:28 35.90821 -77.27193 32144 ft 419 kts 210°
2026-04-22 23:28 35.88188 -77.28717 31905 ft 418 kts 208°
2026-04-22 23:28 35.85530 -77.30189 31648 ft 418 kts 207°
2026-04-22 23:29 35.82873 -77.31646 31405 ft 418 kts 208°
2026-04-22 23:29 35.80219 -77.33109 31157 ft 417 kts 208°
2026-04-22 23:29 35.77573 -77.34582 30916 ft 417 kts 210°
2026-04-22 23:29 35.75197 -77.36447 30639 ft 407 kts 228°
2026-04-22 23:30 35.73324 -77.39003 30437 ft 399 kts 237°
2026-04-22 23:30 35.71647 -77.41757 30188 ft 397 kts 239°
2026-04-22 23:30 35.70064 -77.44474 29927 ft 395 kts 239°
2026-04-22 23:30 35.68476 -77.47231 29645 ft 394 kts 239°
2026-04-22 23:31 35.66904 -77.49976 29374 ft 392 kts 240°
2026-04-22 23:31 35.65347 -77.52706 29094 ft 389 kts 240°
2026-04-22 23:31 35.63798 -77.55430 28790 ft 388 kts 240°
2026-04-22 23:31 35.62259 -77.58143 28466 ft 386 kts 240°
2026-04-22 23:32 35.60728 -77.60851 28142 ft 385 kts 240°
2026-04-22 23:32 35.59207 -77.63555 27810 ft 385 kts 240°
2026-04-22 23:32 35.57692 -77.66263 27507 ft 384 kts 240°
2026-04-22 23:32 35.56184 -77.68971 27213 ft 384 kts 240°
2026-04-22 23:33 35.54703 -77.71641 26913 ft 384 kts 240°
2026-04-22 23:33 35.53205 -77.74353 26620 ft 384 kts 240°
2026-04-22 23:33 35.51707 -77.77073 26324 ft 385 kts 240°
2026-04-22 23:33 35.50213 -77.79798 26032 ft 385 kts 240°
2026-04-22 23:34 35.48721 -77.82528 25737 ft 386 kts 240°
2026-04-22 23:34 35.47233 -77.85263 25445 ft 386 kts 240°
2026-04-22 23:34 35.45745 -77.88006 25173 ft 385 kts 240°
2026-04-22 23:34 35.44273 -77.90728 25098 ft 380 kts 240°
2026-04-22 23:35 35.42818 -77.93422 25081 ft 379 kts 240°
2026-04-22 23:35 35.41360 -77.96126 25078 ft 381 kts 240°
2026-04-22 23:35 35.39897 -77.98845 25073 ft 384 kts 240°
2026-04-22 23:35 35.38410 -78.01616 25095 ft 393 kts 240°
2026-04-22 23:36 35.36906 -78.04429 25084 ft 395 kts 240°
2026-04-22 23:36 35.35174 -78.06955 25056 ft 392 kts 221°
2026-04-22 23:36 35.32802 -78.08535 24862 ft 389 kts 200°
2026-04-22 23:36 35.30184 -78.09204 24641 ft 381 kts 189°
2026-04-22 23:37 35.27571 -78.09584 24413 ft 376 kts 189°
2026-04-22 23:37 35.24986 -78.09947 24176 ft 371 kts 189°
2026-04-22 23:37 35.22435 -78.10310 23947 ft 368 kts 189°
2026-04-22 23:37 35.19906 -78.10679 23720 ft 365 kts 190°
2026-04-22 23:38 35.17392 -78.11055 23460 ft 363 kts 190°
2026-04-22 23:38 35.14895 -78.11434 23191 ft 361 kts 190°
2026-04-22 23:38 35.12447 -78.11811 22927 ft 359 kts 190°
2026-04-22 23:38 35.09976 -78.12192 22665 ft 357 kts 190°
2026-04-22 23:39 35.07521 -78.12571 22401 ft 355 kts 190°
2026-04-22 23:39 35.05077 -78.12948 22141 ft 353 kts 190°
2026-04-22 23:39 35.02642 -78.13324 21884 ft 352 kts 190°
2026-04-22 23:39 35.00219 -78.13698 21627 ft 351 kts 190°
2026-04-22 23:40 34.97799 -78.14073 21372 ft 349 kts 190°
2026-04-22 23:40 34.95397 -78.14445 21120 ft 348 kts 191°
2026-04-22 23:40 34.93090 -78.15208 20849 ft 341 kts 208°
2026-04-22 23:40 34.91035 -78.16595 20613 ft 336 kts 216°
2026-04-22 23:41 34.89102 -78.18121 20374 ft 334 kts 216°
2026-04-22 23:41 34.87161 -78.19671 20137 ft 332 kts 217°
2026-04-22 23:41 34.85241 -78.21205 19865 ft 329 kts 216°
2026-04-22 23:41 34.83331 -78.22726 19552 ft 328 kts 216°
2026-04-22 23:42 34.81420 -78.24243 19238 ft 327 kts 216°
2026-04-22 23:42 34.79521 -78.25745 18922 ft 326 kts 216°
2026-04-22 23:42 34.77622 -78.27244 18603 ft 325 kts 216°
2026-04-22 23:42 34.75721 -78.28740 18267 ft 325 kts 216°
2026-04-22 23:43 34.73855 -78.30208 17886 ft 324 kts 216°
2026-04-22 23:43 34.71951 -78.31704 17427 ft 327 kts 217°
2026-04-22 23:43 34.70041 -78.33204 17081 ft 326 kts 217°
2026-04-22 23:43 34.68135 -78.34698 16720 ft 325 kts 216°
2026-04-22 23:44 34.66241 -78.36183 16400 ft 324 kts 216°
2026-04-22 23:44 34.64351 -78.37662 16061 ft 322 kts 216°
2026-04-22 23:44 34.62471 -78.39133 15746 ft 321 kts 216°
2026-04-22 23:44 34.60599 -78.40597 15426 ft 320 kts 216°
2026-04-22 23:45 34.58753 -78.42041 15105 ft 319 kts 217°
2026-04-22 23:45 34.56887 -78.43499 14772 ft 319 kts 217°
2026-04-22 23:45 34.55027 -78.44952 14459 ft 318 kts 217°
2026-04-22 23:45 34.53166 -78.46405 14125 ft 318 kts 217°
2026-04-22 23:46 34.51305 -78.47857 13778 ft 318 kts 217°
2026-04-22 23:46 34.49444 -78.49308 13437 ft 317 kts 217°
2026-04-22 23:46 34.47619 -78.50728 13342 ft 308 kts 217°
2026-04-22 23:46 34.45830 -78.52119 13105 ft 304 kts 217°
2026-04-22 23:47 34.44055 -78.53502 12810 ft 302 kts 216°
2026-04-22 23:47 34.42321 -78.54852 12558 ft 299 kts 217°
2026-04-22 23:47 34.40576 -78.56209 12258 ft 298 kts 217°
2026-04-22 23:47 34.38835 -78.57563 11959 ft 297 kts 217°
2026-04-22 23:48 34.37099 -78.58912 11674 ft 295 kts 217°
2026-04-22 23:48 34.35376 -78.60251 11401 ft 294 kts 217°
2026-04-22 23:48 34.33663 -78.61581 11139 ft 292 kts 217°
2026-04-22 23:48 34.31965 -78.62897 10926 ft 288 kts 217°
2026-04-22 23:49 34.30291 -78.64195 10717 ft 284 kts 217°
2026-04-22 23:49 34.28635 -78.65479 10458 ft 282 kts 217°
2026-04-22 23:49 34.27004 -78.66742 10195 ft 281 kts 217°
2026-04-22 23:49 34.25361 -78.68016 9922 ft 280 kts 217°
2026-04-22 23:50 34.23725 -78.69282 9653 ft 278 kts 218°
2026-04-22 23:50 34.22095 -78.70542 9380 ft 277 kts 218°
2026-04-22 23:50 34.20487 -78.71786 9137 ft 273 kts 217°
2026-04-22 23:50 34.18887 -78.73023 8851 ft 273 kts 217°
2026-04-22 23:51 34.17291 -78.74256 8581 ft 271 kts 217°
2026-04-22 23:51 34.15716 -78.75473 8281 ft 266 kts 217°
2026-04-22 23:51 34.14156 -78.76677 7831 ft 266 kts 217°
2026-04-22 23:51 34.12624 -78.77859 7431 ft 263 kts 216°
2026-04-22 23:52 34.11097 -78.79035 7221 ft 254 kts 217°
2026-04-22 23:52 34.09653 -78.80145 7121 ft 240 kts 217°
2026-04-22 23:52 34.08282 -78.81199 6984 ft 228 kts 217°
2026-04-22 23:52 34.06960 -78.82217 6714 ft 223 kts 217°
2026-04-22 23:53 34.05654 -78.83225 6327 ft 224 kts 217°
2026-04-22 23:53 34.04348 -78.84233 6005 ft 221 kts 217°
2026-04-22 23:53 34.03059 -78.85226 5686 ft 219 kts 217°
2026-04-22 23:53 34.01799 -78.86196 5411 ft 216 kts 217°
2026-04-22 23:54 34.00536 -78.87169 5093 ft 215 kts 216°
2026-04-22 23:54 33.99286 -78.88130 4801 ft 213 kts 216°
2026-04-22 23:54 33.98040 -78.89088 4458 ft 212 kts 216°
2026-04-22 23:54 33.96802 -78.90040 4122 ft 211 kts 216°
2026-04-22 23:55 33.95572 -78.90985 3794 ft 209 kts 216°
2026-04-22 23:55 33.94347 -78.91926 3484 ft 208 kts 217°
2026-04-22 23:55 33.93128 -78.92862 3166 ft 207 kts 216°
2026-04-22 23:55 33.91913 -78.93794 2838 ft 207 kts 215°
2026-04-22 23:56 33.90704 -78.94722 2520 ft 206 kts 214°
2026-04-22 23:56 33.89507 -78.95639 2223 ft 208 kts 215°
2026-04-22 23:56 33.88276 -78.96582 2031 ft 210 kts 214°
2026-04-22 23:56 33.86946 -78.97348 1975 ft 217 kts 191°
2026-04-22 23:57 33.85459 -78.97123 1990 ft 214 kts 170°
2026-04-22 23:57 33.84057 -78.96791 1959 ft 197 kts 175°
2026-04-22 23:57 33.82765 -78.96508 1944 ft 181 kts 174°
2026-04-22 23:57 33.81535 -78.96220 1988 ft 182 kts 173°
2026-04-22 23:58 33.80308 -78.95920 1989 ft 178 kts 173°
2026-04-22 23:58 33.79113 -78.95623 1944 ft 174 kts 172°
2026-04-22 23:58 33.77931 -78.95329 1748 ft 177 kts 172°
2026-04-22 23:58 33.76730 -78.95027 1513 ft 174 kts 173°
2026-04-22 23:59 33.75565 -78.94734 1273 ft 167 kts 173°
2026-04-22 23:59 33.74461 -78.94457 1078 ft 157 kts 172°
2026-04-22 23:59 33.73454 -78.94203 929 ft 139 kts 173°
2026-04-22 23:59 33.72545 -78.93975 729 ft 125 kts 172°
2026-04-23 00:00 33.70821 -78.93545 414 ft 130 kts 172°
2026-04-23 00:00 33.70225 -78.93401 314 ft 132 kts 172°
2026-04-23 00:00 33.68994 -78.93078 42 ft 141 kts 172°
2026-04-23 00:01 33.68168 -78.92892 30 ft 91 kts 168°
2026-04-23 00:01 33.67763 -78.92777 31 ft 48 kts 167°
2026-04-23 00:01 33.67514 -78.92611 31 ft 22 kts 137°
2026-04-23 00:01 33.67517 -78.92516 31 ft 16 kts 354°
2026-04-23 00:02 33.67621 -78.92544 31 ft 15 kts 346°
2026-04-23 00:02 33.67732 -78.92569 30 ft 18 kts 349°
2026-04-23 00:02 33.67849 -78.92589 31 ft 16 kts 13°
2026-04-23 00:02 33.67891 -78.92490 31 ft 10 kts 66°
2026-04-23 00:03 33.67944 -78.92456 31 ft 9 kts 32°
2026-04-23 00:03 33.67967 -78.92436 31 ft 1 kts 38°
2026-04-23 00:04 33.67967 -78.92437 31 ft 0 kts 39°
2026-04-23 00:08 33.67963 -78.92441 31 ft 0 kts 39°
2026-04-23 00:08 33.67973 -78.92431 31 ft 0 kts 39°
2026-04-23 00:09 33.67967 -78.92437 31 ft 0 kts 39°
2026-04-23 00:09 33.68067 -78.92463 31 ft 0 kts 150°